sat.trackr.live / text

‹ back to catalog

STARLINK-35531

NORAD 66112 · 2025-236AC

PAYLOAD ACTIVE UNKNOWN

§ Identity

Operator
Country
US
Launch date
2025-10-19
Launch site
AFWTR
Launch vehicle
Mass (kg)
RCS (m²)

Purposes: comms

External: N2YO · Heavens-Above · Gunter

§ Orbital elements

Epoch: 2026-05-25T03:49:12.167040Z

Period
94.10 min
Inclination
53.1620°
Eccentricity
0.0001517
Mean motion
15.30213927 rev/d
Perigee alt
474.1 km
Apogee alt
476.2 km
Semi-major
6,853.3 km
B*
7.6780e-4
RAAN
108.5883°
Arg perigee
84.7227°
Mean anomaly
275.3947°
Rev number
3,465

§ Raw data

STARLINK-355311 66112U 25236AC  26145.15916860  .00022459  00000+0  76780-3 0  99902 66112  53.1620 108.5883 0001517  84.7227 275.3947 15.30213927 34650

JSON: /api/v1/satellites/66112 · /tle

For live sub-satellite position, see the globe view (requires WebGL).

§ Visibility from observer

Set your observer location to see the next 7 days of passes ≥ 10°. The values pass through the URL so the page stays shareable.

No JS? Fill the form by hand. The geolocation button needs JavaScript.